Temp
2 2 2 3 3 3 3 3 3 3 3 4 4 5 5 5 6 6 6 7 7 6 7 7 7 7 7 7 7 7 6 7 9 10 10 10 9 8 8 9 9 8 8 8 9
2 2 2 2 2 3 3 3 3 3 3 3 4 4 4 5 5 5 6 7 7 6 6 7 6 6 6 6 6 7 7 7 9 9 10 9 9 9 8 8 9 8 8 8 8
1 2 2 2 2 2 2 2 3 3 3 4 4 4 4 4 5 6 6 6 6 6 6 6 6 6 6 6 6 7 7 8 9 9 8 8 8 8 8 9 9 8 8 8 8
2 2 2 2 2 2 2 2 2 3 3 3 4 4 4 4 4 4 3 4 5 5 5 5 5 5 6 6 6 6 7 7 8 8 7 8 8 8 7 8 8 8 8 8 8
1 1 1 2 2 2 2 2 2 2 3 3 3 4 4 4 5 4 4 4 4 4 4 4 4 4 5 5 5 6 6 6 7 7 7 7 8 8 8 8 8 8 8 8 8
1 1 2 2 2 2 2 2 2 2 2 3 3 3 4 4 4 4 4 4 4 4 4 4 4 4 4 4 5 5 5 5 5 6 6 6 8 6 9 9 8 8 8 8 8
1 1 1 2 2 2 2 2 2 2 2 2 2 3 4 4 4 4 4 4 4 4 4 4 4 4 3 3 4 4 4 4 5 6 6 7 7 8 9 8 8 8 8 8 8
1 1 1 1 1 2 2 2 2 2 2 2 2 2 4 4 4 4 4 5 4 4 4 4 3 3 3 2 3 4 4 4 5 6 6 6 8 7 7 8 8 8 7 8 8
0 1 1 1 1 1 1 1 1 2 2 2 2 2 3 3 3 3 3 3 4 4 3 3 2 2 2 1 1 2 2 3 4 5 5 6 7 6 7 7 7 7 7 8 8
-0 0 0 0 0 0 1 1 1 1 1 2 2 2 3 2 2 2 2 2 2 3 3 2 2 2 2 1 0 1 2 3 3 4 4 5 6 6 6 6 6 7 7 7 8
-0 -0 -0 -1 -1 -0 -0 0 0 1 1 1 1 1 2 2 1 2 1 1 0 1 2 2 2 3 3 3 3 2 2 2 2 3 4 4 5 5 6 6 6 7 7 7 8
-1 -1 -1 -2 -2 -2 -1 -1 -1 -1 1 1 1 1 1 1 2 3 2 1 0 0 1 0 1 3 2 2 2 2 2 2 2 3 3 4 5 5 5 6 6 7 7 7 8
-2 -2 -2 -2 -2 -2 -2 -2 -3 -3 -3 0 -0 1 0 -0 1 2 1 2 1 1 0 -0 2 2 2 2 2 2 2 1 2 3 3 3 4 5 6 6 6 6 7 7 7
-3 -3 -3 -3 -3 -3 -3 -4 -5 -6 -7 -2 -4 -3 -3 -2 -1 -1 -0 0 1 1 0 -0 1 1 1 1 1 1 2 2 2 1 1 3 2 3 4 6 6 6 7 7 7
-3 -3 -3 -3 -4 -4 -5 -6 -7 -9 -10 -4 -5 -6 -6 -5 -5 -3 -2 -1 1 -1 -1 2 -0 -0 1 2 1 2 2 2 2 2 1 2 1 3 4 4 6 6 6 6 7
-4 -4 -4 -4 -5 -6 -7 -8 -8 -9 -10 -6 -7 -7 -7 -5 -5 -4 -4 -3 -3 -2 -2 -0 -0 -0 1 1 2 2 1 1 1 1 -1 1 2 2 4 5 5 5 5 6 7
-4 -5 -5 -5 -6 -7 -8 -8 -9 -10 -8 -8 -8 -8 -7 -7 -5 -5 -4 -4 -3 -3 -2 -1 -2 -1 -0 0 1 -0 0 -0 -1 -2 -1 3 2 4 4 5 5 5 5 5 6
-5 -5 -6 -7 -8 -8 -8 -9 -10 -9 -10 -9 -9 -8 -8 -8 -6 -6 -4 -4 -3 -3 -2 -2 -2 -2 -0 -0 1 1 -0 0 0 -1 0 3 2 4 5 5 4 5 4 5 6
-6 -6 -7 -8 -8 -8 -9 -10 -9 -10 -10 -10 -8 -9 -8 -7 -9 -8 -6 -6 -5 -4 -3 -2 -2 -0 -0 0 0 0 0 1 1 1 1 3 3 4 4 5 4 4 4 4 5
-6 -7 -8 -8 -9 -9 -9 -10 -10 -10 -10 -10 -10 -10 -9 -8 -9 -8 -7 -6 -6 -5 -4 -2 -2 -0 0 -1 -0 1 1 1 1 0 0 1 2 4 5 5 4 4 4 4 5
-7 -8 -9 -9 -9 -10 -10 -10 -10 -9 -10 -10 -10 -10 -9 -9 -9 -8 -8 -7 -7 -6 -5 -4 -2 -1 -0 0 1 -0 -0 1 2 2 0 0 2 4 4 4 4 4 4 4 4
-8 -9 -9 -9 -10 -10 -10 -10 -9 -9 -10 -10 -10 -9 -9 -9 -8 -9 -9 -8 -7 -7 -7 -6 -4 -2 -1 -0 0 0 1 0 1 1 2 2 2 3 4 4 4 3 3 3 2
-9 -9 -10 -10 -10 -11 -11 -10 -10 -10 -9 -10 -9 -9 -9 -8 -9 -9 -9 -8 -7 -7 -6 -6 -5 -3 -1 -1 -1 -1 -1 0 1 2 2 -0 1 3 3 4 4 3 3 2 2
-9 -10 -10 -12 -11 -11 -11 -10 -9 -10 -10 -9 -9 -9 -9 -8 -8 -8 -8 -7 -7 -6 -7 -6 -6 -6 -5 -5 -5 -2 -1 -1 0 0 1 1 2 2 2 2 2 2 2 1 0
-10 -11 -11 -11 -12 -11 -11 -10 -10 -10 -9 -9 -9 -9 -9 -9 -8 -8 -8 -7 -6 -6 -6 -6 -6 -6 -6 -5 -5 -4 -3 -2 -1 0 1 -0 1 2 1 1 1 2 2 1 1
-10 -11 -11 -11 -12 -12 -11 -11 -11 -10 -10 -9 -10 -9 -10 -9 -9 -8 -8 -7 -8 -6 -6 -6 -5 -5 -6 -4 -4 -3 -4 -4 -2 -1 -1 -0 1 1 1 1 1 1 0 -0 0
-11 -12 -13 -12 -12 -12 -12 -12 -11 -11 -10 -10 -10 -10 -9 -9 -8 -8 -7 -7 -7 -7 -6 -6 -6 -5 -4 -4 -3 -3 -3 -4 -1 -1 -1 -0 -1 -0 -0 -0 -0 0 0 -0 -1
Height
3101 3098 3096 3095 3094 3094 3092 3091 3089 3087 3084 3083 3083 3083 3082 3082 3082 3082 3083 3083 3084 3083 3085 3087 3088 3089 3089 3090 3091 3091 3089 3086 3089 3091 3095 3098 3100 3100 3099 3100 3100 3100 3100 3104 3105
3098 3096 3094 3092 3091 3089 3088 3087 3086 3084 3081 3078 3078 3077 3077 3076 3077 3078 3077 3076 3078 3078 3079 3082 3082 3084 3084 3085 3084 3084 3080 3080 3086 3089 3090 3093 3094 3096 3095 3095 3097 3097 3098 3098 3100
3095 3093 3091 3090 3088 3086 3085 3083 3081 3079 3078 3076 3074 3073 3071 3070 3071 3071 3071 3070 3072 3072 3073 3075 3076 3076 3077 3079 3078 3077 3069 3078 3083 3085 3086 3086 3088 3089 3088 3089 3094 3094 3095 3094 3094
3092 3090 3088 3087 3085 3083 3082 3080 3077 3075 3073 3073 3070 3069 3067 3067 3071 3067 3065 3067 3067 3066 3067 3069 3070 3069 3070 3072 3074 3071 3069 3074 3078 3080 3080 3081 3081 3080 3081 3084 3089 3089 3090 3090 3090
3088 3087 3085 3083 3082 3081 3079 3077 3074 3071 3069 3067 3066 3064 3064 3063 3066 3061 3061 3062 3063 3063 3063 3062 3063 3067 3064 3067 3068 3065 3065 3069 3072 3074 3074 3076 3074 3072 3072 3081 3083 3083 3083 3085 3085
3085 3084 3081 3080 3078 3077 3076 3074 3071 3067 3066 3063 3061 3059 3057 3059 3059 3056 3057 3056 3056 3058 3058 3059 3061 3062 3058 3059 3061 3062 3061 3062 3064 3066 3067 3068 3067 3068 3069 3074 3076 3078 3079 3079 3079
3082 3080 3078 3076 3074 3072 3070 3069 3066 3063 3062 3060 3056 3052 3049 3055 3053 3051 3050 3050 3050 3051 3052 3054 3056 3054 3053 3053 3056 3054 3054 3055 3055 3059 3062 3066 3053 3056 3066 3069 3069 3071 3072 3072 3072
3078 3076 3074 3073 3070 3067 3066 3065 3062 3058 3056 3054 3051 3047 3041 3047 3046 3043 3043 3043 3043 3043 3044 3049 3050 3048 3046 3049 3050 3049 3048 3045 3048 3054 3056 3065 3038 3055 3060 3060 3062 3064 3065 3066 3066
3075 3072 3071 3068 3065 3061 3060 3059 3056 3053 3049 3048 3045 3043 3036 3038 3039 3038 3036 3037 3038 3038 3038 3043 3042 3042 3043 3042 3043 3043 3039 3041 3044 3047 3052 3055 3039 3049 3054 3055 3055 3056 3058 3059 3059
3071 3068 3066 3063 3060 3057 3054 3054 3050 3047 3044 3041 3038 3039 3034 3035 3033 3034 3033 3033 3033 3033 3032 3034 3036 3034 3033 3035 3028 3035 3037 3037 3039 3044 3047 3046 3037 3044 3049 3048 3048 3048 3050 3052 3053
3066 3064 3062 3059 3054 3050 3048 3047 3046 3041 3038 3037 3035 3029 3027 3030 3028 3026 3028 3027 3026 3027 3026 3027 3029 3015 3022 3028 3030 3034 3035 3033 3035 3041 3040 3040 3032 3036 3041 3040 3040 3041 3044 3046 3048
3062 3060 3057 3055 3050 3045 3041 3037 3035 3032 3018 3030 3025 3022 3020 3019 3008 3018 3021 3019 3020 3018 3022 3022 3012 3016 3020 3024 3026 3027 3028 3025 3031 3035 3038 3035 3018 3028 3030 3031 3034 3034 3036 3040 3041
3057 3055 3052 3050 3045 3040 3037 3035 3030 3025 3018 3002 3015 3011 3008 3005 2999 3000 3009 3005 3005 3008 3009 3012 3005 3011 3014 3017 3018 3017 3018 3023 3027 3031 3031 3029 3008 3017 3023 3023 3026 3028 3029 3032 3034
3052 3049 3046 3044 3041 3036 3032 3030 3025 3019 3016 3001 3003 3003 3000 2997 2995 2995 2996 2996 2992 2990 2999 3003 2998 3002 3007 3008 3013 3009 3013 3019 3023 3028 3025 3025 3008 3009 3014 3016 3019 3022 3024 3024 3024
3047 3043 3039 3033 3032 3031 3029 3024 3021 3018 3020 3005 3002 2999 2997 2998 2990 2986 2987 2986 2980 2982 2989 2978 2986 2996 3000 2997 3010 3004 3010 3014 3019 3020 3022 3020 3021 3003 3008 3011 3015 3017 3014 3015 3015
3042 3037 3033 3029 3026 3024 3020 3019 3019 3022 3012 3003 3002 2995 2991 2989 2985 2979 2980 2978 2975 2975 2978 2978 2985 2988 2989 2997 3000 3005 3009 3013 3016 3017 3014 3011 3015 2998 3002 3007 3009 3008 3009 3009 3007
3036 3032 3026 3022 3021 3018 3017 3017 3019 3016 3011 3005 2999 2995 2990 2985 2980 2976 2973 2972 2973 2972 2969 2971 2974 2982 2987 2989 2993 2997 3004 3010 3014 3013 3003 3003 3007 2994 3000 3004 3003 3004 3004 3004 3003
3031 3026 3021 3019 3017 3016 3015 3016 3016 3013 3011 3007 3002 2994 2990 2985 2978 2973 2969 2968 2969 2970 2968 2965 2968 2970 2976 2979 2983 2987 2993 2997 3000 3001 2998 3000 2996 2994 2997 2999 2999 3001 3001 3000 2998
3026 3020 3018 3017 3015 3014 3015 3014 3013 3011 3010 3006 2999 2995 2989 2985 2983 2974 2968 2964 2964 2966 2967 2964 2963 2962 2963 2972 2980 2983 2986 2990 2993 2993 2993 2990 2990 2993 2995 2997 2997 2997 2998 2997 2994
3021 3017 3015 3015 3013 3013 3013 3012 3010 3009 3007 3005 3002 2999 2992 2985 2982 2975 2966 2963 2960 2959 2962 2962 2962 2962 2961 2967 2972 2976 2982 2988 2989 2990 2990 2986 2987 2988 2990 2994 2992 2995 2995 2993 2991
3016 3014 3013 3012 3011 3012 3011 3009 3007 3007 3006 3004 3001 2996 2992 2987 2983 2976 2972 2965 2958 2955 2956 2958 2960 2962 2961 2963 2963 2969 2973 2979 2981 2982 2982 2984 2983 2985 2988 2990 2989 2992 2992 2990 2989
3012 3011 3010 3010 3012 3009 3009 3008 3006 3004 3004 3000 2997 2995 2992 2989 2982 2978 2973 2970 2962 2959 2957 2954 2955 2957 2959 2961 2961 2963 2965 2970 2973 2974 2977 2979 2979 2981 2983 2985 2988 2990 2989 2987 2987
3009 3008 3008 3007 3008 3008 3007 3007 3004 3002 3001 2998 2996 2995 2991 2987 2985 2980 2975 2971 2968 2964 2959 2953 2952 2953 2955 2959 2959 2961 2963 2964 2969 2972 2972 2977 2976 2978 2981 2982 2984 2985 2986 2986 2984
3006 3005 3005 3005 3006 3006 3005 3005 3003 3002 2999 2996 2995 2992 2991 2988 2986 2981 2979 2976 2972 2968 2960 2955 2955 2953 2958 2962 2962 2961 2961 2961 2963 2966 2968 2971 2972 2974 2977 2980 2981 2982 2983 2984 2983
3001 3003 3002 3003 3004 3004 3004 3003 3001 3000 2999 2996 2994 2992 2990 2986 2983 2980 2977 2974 2972 2970 2966 2962 2956 2957 2957 2959 2960 2960 2961 2961 2961 2961 2964 2967 2969 2971 2974 2979 2980 2980 2981 2981 2981
2997 2999 3000 3000 3001 3001 3001 3001 3000 2999 2998 2996 2993 2990 2989 2986 2984 2978 2977 2975 2973 2969 2967 2965 2964 2961 2959 2958 2959 2959 2960 2962 2963 2961 2962 2964 2964 2967 2970 2975 2977 2976 2979 2980 2978
2993 2994 2996 2997 2997 2998 2999 2997 2997 2996 2996 2994 2991 2988 2988 2987 2984 2980 2976 2973 2970 2969 2967 2967 2966 2964 2960 2959 2957 2957 2959 2959 2959 2959 2962 2962 2965 2966 2969 2973 2975 2976 2978 2980 2978
Wind_Speed
20 20 19 19 20 21 21 22 23 23 23 24 25 26 28 27 24 24 25 24 24 24 24 25 24 25 25 25 26 27 30 34 33 28 23 13 16 14 13 16 17 11 11 15 18
19 19 19 18 18 18 19 20 21 22 23 23 23 24 26 28 26 22 24 24 23 24 23 25 26 28 30 29 30 31 38 39 31 27 23 23 20 22 20 17 19 15 10 8 11
16 17 17 18 18 18 19 20 21 23 25 24 23 22 23 25 25 22 23 20 20 22 24 25 29 32 33 31 34 36 45 36 31 27 27 28 24 27 31 29 22 19 16 13 14
15 16 17 18 18 19 20 21 22 24 25 27 25 24 23 22 16 16 16 12 13 19 21 25 30 34 36 37 35 39 43 36 32 30 31 29 30 33 32 32 27 25 21 21 19
15 17 18 19 20 21 22 23 24 26 26 27 28 28 27 24 14 24 24 23 20 20 18 21 27 31 36 37 36 42 43 39 35 33 34 31 35 36 37 29 28 27 23 22 23
18 19 20 20 21 22 22 23 26 27 28 30 31 30 31 30 20 19 20 20 24 26 25 24 20 24 32 33 35 40 42 39 41 38 36 37 38 36 37 32 32 30 29 26 26
19 21 21 22 23 24 25 25 27 30 29 30 32 33 36 26 25 25 28 24 23 23 29 32 29 30 30 32 31 32 37 38 40 33 36 33 46 44 33 31 34 32 27 28 29
21 21 22 23 25 26 26 26 28 31 31 32 34 36 40 30 30 31 30 28 29 27 28 23 27 32 34 34 28 25 31 37 36 37 38 30 55 39 29 27 30 29 27 28 29
21 22 24 26 29 31 32 30 30 32 34 34 36 37 41 24 16 22 25 22 21 29 31 29 30 32 32 32 30 34 35 30 30 28 26 28 49 38 32 29 30 29 27 28 28
24 25 27 29 31 32 34 33 33 34 35 37 38 36 28 14 7 20 33 29 22 23 27 32 32 35 39 32 32 25 32 35 37 31 25 29 43 40 35 33 32 30 28 28 28
26 29 30 32 34 36 36 34 34 40 36 35 37 41 41 37 41 38 33 34 30 26 25 27 35 51 47 42 39 38 32 28 31 27 24 31 43 40 36 36 34 32 32 33 29
28 30 30 31 32 35 37 38 39 40 52 40 41 43 43 40 48 39 38 39 36 33 27 29 40 39 38 38 40 40 39 44 40 35 30 36 51 44 43 40 37 37 36 33 32
30 31 32 30 32 35 36 36 37 39 44 59 40 41 34 32 41 42 36 44 43 47 42 38 44 16 32 35 35 39 44 38 36 33 33 32 52 45 37 35 29 28 31 32 34
30 32 34 32 33 35 37 33 31 33 29 45 14 6 13 20 29 25 18 27 43 49 46 39 45 43 29 25 27 39 36 36 34 27 20 8 16 24 28 31 26 22 23 25 33
31 32 33 36 36 35 33 26 22 22 5 19 13 10 8 18 26 25 21 20 33 41 32 57 37 30 35 45 30 33 26 27 26 24 24 26 15 9 3 7 10 13 18 21 29
31 32 34 35 35 30 24 20 18 3 7 13 22 29 35 28 28 31 20 21 27 26 39 44 39 28 39 34 32 35 17 8 8 12 8 21 17 6 1 4 7 21 22 19 25
30 32 34 34 29 22 20 19 4 4 10 13 26 36 31 23 25 24 19 23 23 15 22 37 43 30 26 22 24 27 20 3 3 6 6 7 16 29 6 6 20 19 21 21 23
29 30 29 25 19 17 17 13 2 7 13 28 26 37 19 21 23 24 15 17 19 17 13 15 13 39 34 29 25 26 35 13 7 4 4 14 10 13 2 5 12 20 22 23 23
27 25 20 16 14 12 12 8 4 12 14 25 28 21 26 29 29 24 13 13 5 18 8 6 10 12 23 45 31 20 33 33 2 3 1 8 7 15 14 20 22 21 18 24 26
23 17 14 13 11 10 10 9 13 17 18 19 23 13 30 35 27 29 14 16 8 2 15 12 7 8 7 19 37 36 26 13 13 6 7 4 6 6 11 8 16 18 19 22 27
17 14 12 9 8 8 9 13 23 11 13 15 21 23 24 23 23 23 25 11 25 13 3 15 16 11 9 8 12 29 33 22 21 10 5 2 6 10 17 20 25 16 14 19 26
12 10 8 8 9 7 9 13 16 11 11 18 18 13 18 24 18 15 24 26 32 24 16 2 8 16 22 11 7 15 27 32 16 13 15 11 12 5 12 16 18 16 16 16 12
10 10 9 9 6 7 6 7 10 13 14 12 12 11 13 17 10 14 20 26 29 28 18 10 1 5 15 14 5 2 7 20 34 24 16 7 6 16 15 18 20 20 16 17 15
9 6 6 5 8 8 7 6 9 11 11 5 12 9 15 13 12 12 17 17 12 24 21 10 13 14 5 5 7 3 6 1 20 24 27 13 9 9 11 12 11 13 15 16 13
10 7 10 7 14 12 9 9 12 16 13 9 6 11 10 13 16 13 19 20 11 9 16 13 15 14 14 17 8 7 3 10 3 19 20 13 14 14 15 19 11 10 8 5 10
14 12 11 11 13 13 10 12 13 13 13 12 17 15 15 11 13 20 19 18 17 13 11 11 8 10 13 18 17 17 6 6 4 4 4 9 13 10 8 13 8 2 2 3 6
15 14 14 12 11 13 12 10 10 13 6 11 16 20 17 14 15 14 17 18 18 14 9 7 8 9 3 12 24 3 4 3 0 1 3 5 5 8 8 11 6 4 5 4 6
Wind_Direction
292 291 292 292 294 295 295 292 291 289 286 283 281 282 282 281 276 276 275 266 254 255 247 246 242 244 247 243 244 244 240 241 245 247 244 244 217 214 214 216 224 227 230 263 273
295 296 296 296 296 295 295 296 297 295 291 288 286 285 286 284 280 276 270 268 261 251 249 243 242 243 243 244 243 241 244 246 249 252 256 255 247 220 228 227 221 222 231 256 275
303 303 302 304 303 302 300 300 298 295 294 292 291 291 291 294 293 288 283 271 257 248 242 238 238 238 240 240 240 246 249 254 256 258 258 260 256 247 255 246 232 234 236 251 255
308 308 307 306 305 303 302 302 298 295 295 295 295 293 291 292 304 298 284 278 263 249 239 235 239 238 241 241 242 248 252 254 258 259 261 259 263 256 255 253 241 240 250 257 267
301 305 306 305 304 303 301 301 298 297 297 297 296 294 290 287 297 278 278 271 259 253 244 236 236 242 245 246 247 251 257 259 259 260 261 262 255 264 261 253 247 243 246 255 261
302 303 303 305 307 307 307 303 299 295 296 295 294 294 291 294 297 281 278 273 263 249 242 245 244 248 252 253 249 252 259 264 259 255 256 258 257 263 255 257 254 250 250 261 269
303 307 307 311 312 310 308 306 303 299 299 297 296 294 289 298 290 290 282 271 263 256 245 246 245 244 247 253 253 254 258 259 254 253 254 260 261 255 264 265 263 265 265 268 271
304 305 307 309 309 306 304 305 303 300 299 297 296 294 289 296 291 284 280 275 262 253 253 244 244 249 247 253 247 254 258 259 262 255 254 254 265 262 263 260 265 267 272 274 270
307 309 312 313 310 308 306 307 304 300 298 297 295 295 297 297 282 291 289 282 274 259 247 241 242 248 249 248 253 245 252 257 267 265 260 250 263 268 269 270 270 271 269 269 266
308 310 312 312 309 306 304 305 303 301 299 298 294 294 290 304 290 289 294 292 291 273 248 235 240 242 244 235 232 237 245 253 258 259 260 259 265 269 270 272 272 267 261 271 265
307 311 313 313 312 309 306 306 303 301 300 299 295 290 287 286 284 275 271 278 279 267 256 246 237 240 239 242 250 251 251 259 263 265 266 268 271 273 273 267 267 263 266 270 264
308 310 311 310 310 310 313 316 315 310 304 299 294 289 290 286 279 270 266 263 261 259 252 237 242 248 251 250 250 252 252 255 260 260 265 273 273 274 273 271 269 268 267 268 260
310 310 308 312 313 311 312 316 313 309 306 304 305 297 291 280 272 276 267 266 258 255 249 239 251 260 250 251 248 248 247 249 257 266 269 277 277 280 279 275 271 271 271 262 262
309 310 311 315 312 313 316 317 313 308 309 308 341 343 290 280 278 278 282 273 258 249 247 246 251 241 238 248 249 253 252 252 254 257 257 264 284 289 287 280 274 281 280 273 264
311 313 315 314 313 314 318 320 322 317 322 315 335 277 299 313 300 270 279 278 259 250 228 241 242 240 243 245 246 259 257 256 252 251 258 253 274 286 202 303 305 286 273 273 259
313 314 312 312 313 322 328 329 321 312 254 300 314 303 301 286 305 302 289 268 267 253 231 247 249 246 253 254 252 244 234 223 238 243 249 236 228 268 23 345 287 300 299 298 276
314 313 311 313 320 326 325 324 318 206 318 305 320 321 312 321 309 313 284 260 261 228 234 244 240 234 237 231 231 226 209 197 205 195 222 168 215 253 223 299 289 293 306 301 305
314 312 310 315 320 320 318 325 276 298 285 308 299 331 334 337 334 328 286 248 258 251 270 235 248 235 212 217 214 210 203 187 209 194 194 207 221 249 223 224 263 288 297 300 292
313 308 307 315 315 314 317 320 291 320 315 320 327 329 324 328 333 325 323 343 228 222 248 241 245 237 231 227 211 190 198 214 263 262 29 209 220 227 233 265 271 274 289 298 294
311 297 301 303 303 305 316 317 324 327 319 307 304 298 310 322 328 336 340 11 345 211 233 241 269 267 239 218 226 216 206 177 206 215 238 244 227 215 190 244 245 278 287 291 295
305 292 296 290 293 298 314 319 322 346 336 318 317 308 308 311 313 331 5 350 19 348 222 224 226 227 197 197 212 211 225 218 226 223 191 238 239 226 241 242 256 266 273 284 289
293 290 278 283 280 295 309 327 323 346 329 311 322 322 324 325 326 343 338 356 3 345 334 258 206 225 244 248 216 214 218 214 209 209 234 241 241 219 225 242 256 249 267 273 307
278 276 264 265 249 261 298 336 343 350 336 302 316 319 330 333 325 340 341 354 344 353 334 345 104 196 227 214 186 74 211 220 221 231 229 179 234 240 253 268 268 265 276 294 264
269 254 239 221 243 260 285 307 328 345 342 284 330 314 320 322 333 321 333 339 325 336 348 1 50 75 74 0 316 264 67 346 223 219 227 235 210 204 239 253 274 288 292 309 280
256 249 240 236 232 247 282 300 324 330 354 327 311 330 348 325 328 322 326 332 338 343 359 346 37 47 66 50 25 323 359 28 52 210 209 218 213 224 232 258 264 281 290 280 285
253 253 254 249 244 256 272 286 294 302 316 333 329 316 335 329 325 317 324 324 321 310 337 344 353 21 26 32 6 339 308 295 308 98 154 151 168 170 216 213 225 241 311 311 320
248 254 260 259 257 263 270 271 278 297 286 322 319 319 324 314 304 305 306 306 291 291 306 315 339 352 347 339 340 35 285 267 46 341 274 201 181 162 210 215 209 227 222 229 299